Cloud_Cover
100 100 84 100 100 71 38 77 7 3 15 43 92 35 21 98 100 100 100 100 77 4 0 0 0 0 0 0 0 3 3 5 5 5 5 5 5 5 5 5 5 7 5 5 8 88 56
97 27 82 84 70 48 87 99 98 28 42 6 6 2 6 0 13 85 91 100 38 5 0 0 0 0 0 0 0 0 0 2 3 5 5 4 6 3 5 5 5 5 38 92 100 92 100
96 94 92 59 97 100 100 100 100 100 99 98 100 100 90 5 4 0 1 1 12 0 0 0 4 1 0 0 0 4 33 6 64 90 99 99 98 96 81 77 98 100 79 100 100 100 5
100 99 81 51 73 100 100 100 99 94 30 15 99 100 100 100 55 4 2 6 26 39 21 5 5 4 14 5 0 0 1 53 38 6 46 5 9 16 53 35 34 69 5 8 99 100 100
44 44 42 100 100 100 100 28 10 24 3 0 0 10 99 100 100 100 100 100 100 94 2 0 0 3 3 27 5 4 4 5 5 27 42 28 43 28 100 67 11 92 31 93 100 100 100
100 100 100 100 100 100 100 52 5 5 0 0 0 5 14 84 24 66 19 18 11 5 6 5 82 22 11 16 5 5 23 5 8 8 9 27 25 6 4 1 2 0 0 8 62 80 73
100 100 100 100 100 95 100 16 5 2 0 0 0 0 2 0 3 5 7 5 16 6 5 5 4 5 6 5 5 11 35 62 5 5 8 9 17 2 4 0 0 0 2 2 4 3 3
100 100 100 100 100 100 93 7 5 0 0 0 0 0 0 0 0 4 3 6 3 10 46 3 2 0 5 2 1 0 0 0 0 0 0 2 74 80 19 4 1 0 0 5 5 5 2
100 100 100 100 100 89 8 4 2 0 0 0 0 0 0 0 0 0 0 0 1 56 13 56 5 0 2 0 0 0 0 0 4 0 4 0 4 82 100 100 42 8 32 28 4 4 4
100 100 100 100 70 96 54 5 5 5 4 1 0 0 0 2 2 5 1 2 1 59 21 99 96 99 68 5 4 4 0 0 0 1 0 4 11 5 13 72 27 6 47 5 5 4 4
100 100 100 99 100 37 100 100 63 64 5 96 95 16 52 6 43 5 4 11 7 4 0 0 17 100 100 100 98 100 40 6 7 5 17 55 5 5 11 100 100 71 20 9 6 6 20
100 100 100 100 100 100 100 100 100 70 25 7 6 8 86 87 11 5 80 82 5 5 11 6 83 96 100 100 100 100 100 100 100 100 100 99 15 49 8 5 5 24 96 97 26 45 44
5 81 100 100 100 100 100 100 100 100 37 5 13 27 13 19 6 6 27 23 10 100 8 5 5 29 5 96 100 100 100 100 100 100 96 64 75 21 5 4 3 5 39 68 76 54 99
5 5 10 100 100 100 100 100 97 100 45 17 100 100 100 100 100 93 92 93 48 5 62 83 7 74 49 78 65 77 42 72 35 50 4 0 2 2 0 5 60 99 100 100 100 72 95
5 5 21 35 29 96 100 100 100 100 100 100 95 41 85 11 40 11 9 84 5 5 6 5 95 100 100 100 100 100 55 13 59 100 100 8 5 32 95 100 100 79 99 100 100 64 100
82 100 100 98 23 32 96 98 100 92 5 83 95 91 48 5 15 33 9 5 66 52 76 95 72 100 100 100 100 100 30 48 100 100 100 100 76 5 21 82 100 100 100 100 100 100 100
94 88 81 100 100 100 27 100 100 100 77 98 55 5 5 96 100 97 99 96 96 99 100 100 100 100 100 100 100 100 100 99 97 99 99 100 100 73 99 99 100 100 100 100 100 100 100
7 25 37 100 43 7 99 72 100 100 21 5 5 46 91 92 65 100 100 100 100 100 100 100 100 100 100 100 100 100 100 100 100 100 85 100 100 86 62 16 57 94 100 100 100 100 100
71 100 13 11 70 6 82 94 93 100 99 26 88 89 100 100 100 100 100 100 100 100 100 100 100 100 100 100 95 78 63 83 93 97 99 80 97 92 35 41 88 93 99 100 100 100 100
88 28 81 20 19 22 100 100 95 100 100 60 83 100 100 57 96 100 100 100 100 100 100 97 90 100 100 88 62 82 70 97 85 54 98 100 100 89 98 100 100 93 100 92 100 100 89
100 29 100 100 100 100 100 100 100 99 99 95 79 100 100 100 100 100 95 5 10 24 36 78 55 100 100 97 45 77 15 12 16 63 100 100 86 97 73 100 100 100 100 100 100 100 99
100 81 100 99 59 100 100 100 100 100 71 32 97 96 100 100 100 100 100 38 99 65 94 5 38 5 22 94 96 100 32 68 23 16 100 99 100 89 61 100 100 100 100 100 100 96 94
100 100 100 100 100 100 100 100 100 100 95 99 96 100 100 96 99 78 92 100 94 5 3 4 5 52 54 9 10 22 77 98 55 99 100 100 100 100 78 34 53 32 5 24 100 100 100
100 100 100 100 100 100 100 100 100 100 100 96 100 95 100 100 100 100 94 31 5 2 41 5 6 100 89 91 82 90 54 92 93 100 100 100 100 100 100 100 89 5 9 95 100 100 100
98 100 100 100 90 100 100 100 100 100 100 100 100 100 100 100 64 100 97 32 5 5 44 5 4 70 100 88 80 55 5 12 32 51 60 88 100 100 100 97 100 95 100 100 100 100 100
100 100 100 100 100 100 100 100 100 100 100 100 100 94 100 100 73 6 5 5 47 83 38 5 16 68 57 99 97 96 51 6 23 5 20 100 100 100 100 100 100 79 100 100 100 100 100
100 100 100 100 100 100 100 100 100 98 93 69 97 100 100 100 14 5 33 61 94 97 89 68 43 90 78 96 100 88 50 55 81 57 75 79 96 100 100 100 71 100 100 94 100 100 100
100 100 100 100 100 100 100 100 100 100 100 96 83 100 96 100 75 11 17 100 100 100 69 40 76 59 100 98 93 22 100 11 63 63 94 38 95 84 100 99 69 88 89 99 97 100 67
83 70 96 100 100 100 100 100 100 100 100 100 99 100 95 100 83 66 62 17 11 40 98 100 66 95 90 90 80 97 99 91 74 99 98 92 100 100 96 100 100 97 100 100 100 98 97